RYR27XV LIMJ-EGSS

Flight info

Callsign RYR27XV
Flight time 1h 39m
Altitude 38000
Route LAGEN DCT NEDED DCT TOP DCT AOSTA DCT ORSUD DCT MOLUS DCT IBODI DCT GOTED DCT TRO DCT CLM DCT KOPOR DCT SOSUN DCT SUBIP UM733 BANVA
Aircraft B738/M-SDE2E3FGHIRWXY/LB1

Departure

Time 2026-05-08 21:29
Airport Genoa Cristoforo Colombo Airport (LIMJ)

Arrival

Time 2026-05-08 23:08
Airport London Stansted Airport (EGSS)
Time Latitude Longitude Altitude Speed Heading
2026-05-08 20:56 44.41596 8.85006 19 ft 0 kts 193°
2026-05-08 21:20 44.41617 8.85012 19 ft 4 kts 189°
2026-05-08 21:20 44.41643 8.85019 21 ft 4 kts 180°
2026-05-08 21:20 44.41665 8.85019 20 ft 4 kts 220°
2026-05-08 21:20 44.41683 8.85041 20 ft 1 kts 220°
2026-05-08 21:21 44.41683 8.85042 20 ft 0 kts 220°
2026-05-08 21:24 44.41680 8.85037 21 ft 4 kts 220°
2026-05-08 21:24 44.41652 8.85000 22 ft 7 kts 228°
2026-05-08 21:24 44.41603 8.84922 19 ft 14 kts 229°
2026-05-08 21:25 44.41530 8.84802 20 ft 17 kts 234°
2026-05-08 21:25 44.41457 8.84665 19 ft 10 kts 232°
2026-05-08 21:25 44.41405 8.84577 19 ft 13 kts 233°
2026-05-08 21:25 44.41346 8.84463 19 ft 15 kts 233°
2026-05-08 21:26 44.41310 8.84435 19 ft 7 kts 158°
2026-05-08 21:26 44.41286 8.84510 19 ft 10 kts 105°
2026-05-08 21:26 44.41260 8.84636 19 ft 17 kts 104°
2026-05-08 21:26 44.41229 8.84804 19 ft 16 kts 107°
2026-05-08 21:27 44.41191 8.84892 19 ft 8 kts 166°
2026-05-08 21:27 44.41128 8.84869 18 ft 11 kts 201°
2026-05-08 21:27 44.41078 8.84821 19 ft 10 kts 243°
2026-05-08 21:27 44.41088 8.84734 18 ft 10 kts 285°
2026-05-08 21:28 44.41124 8.84547 20 ft 44 kts 286°
2026-05-08 21:28 44.41264 8.83840 19 ft 106 kts 285°
2026-05-08 21:28 44.41507 8.82611 21 ft 155 kts 285°
2026-05-08 21:28 44.41781 8.81074 379 ft 165 kts 288°
2026-05-08 21:29 44.42088 8.79520 892 ft 171 kts 289°
2026-05-08 21:29 44.42148 8.77774 1158 ft 196 kts 251°
2026-05-08 21:29 44.41350 8.76139 1508 ft 212 kts 223°
2026-05-08 21:29 44.40058 8.75124 1962 ft 218 kts 192°
2026-05-08 21:30 44.38553 8.75253 2432 ft 222 kts 160°
2026-05-08 21:30 44.37145 8.76222 2897 ft 232 kts 151°
2026-05-08 21:30 44.35711 8.77266 3596 ft 229 kts 152°
2026-05-08 21:30 44.34310 8.78273 4384 ft 225 kts 153°
2026-05-08 21:31 44.32920 8.79277 5057 ft 226 kts 153°
2026-05-08 21:31 44.31528 8.80285 5720 ft 226 kts 154°
2026-05-08 21:31 44.30112 8.81251 6355 ft 228 kts 163°
2026-05-08 21:31 44.28510 8.81380 6615 ft 247 kts 196°
2026-05-08 21:32 44.26959 8.80132 6847 ft 267 kts 226°
2026-05-08 21:32 44.26028 8.77876 7427 ft 274 kts 254°
2026-05-08 21:32 44.25971 8.75261 8081 ft 279 kts 284°
2026-05-08 21:32 44.26845 8.72800 8792 ft 283 kts 306°
2026-05-08 21:33 44.28053 8.70624 9543 ft 285 kts 308°
2026-05-08 21:33 44.29283 8.68474 10232 ft 288 kts 308°
2026-05-08 21:33 44.30575 8.66185 10516 ft 308 kts 307°
2026-05-08 21:33 44.31912 8.63768 10697 ft 329 kts 307°
2026-05-08 21:34 44.33343 8.61139 11104 ft 341 kts 307°
2026-05-08 21:34 44.34506 8.58980 11633 ft 344 kts 306°
2026-05-08 21:34 44.35946 8.56292 12367 ft 346 kts 306°
2026-05-08 21:34 44.37392 8.53583 13093 ft 350 kts 306°
2026-05-08 21:35 44.38860 8.50844 13819 ft 354 kts 307°
2026-05-08 21:35 44.40548 8.48313 14487 ft 358 kts 318°
2026-05-08 21:35 44.42454 8.46042 15155 ft 361 kts 319°
2026-05-08 21:35 44.44391 8.43794 15885 ft 364 kts 319°
2026-05-08 21:36 44.46296 8.41584 16575 ft 367 kts 319°
2026-05-08 21:36 44.48265 8.39284 17253 ft 370 kts 319°
2026-05-08 21:36 44.50242 8.36959 17934 ft 373 kts 319°
2026-05-08 21:36 44.52234 8.34602 18590 ft 377 kts 319°
2026-05-08 21:37 44.54160 8.32316 19110 ft 381 kts 318°
2026-05-08 21:37 44.55179 8.31103 19377 ft 383 kts 318°
2026-05-08 21:37 44.55798 8.30367 19548 ft 384 kts 318°
2026-05-08 21:38 44.56047 8.30069 19617 ft 384 kts 318°
2026-05-08 21:38 44.58091 8.27633 20171 ft 387 kts 318°
2026-05-08 21:38 44.60152 8.25173 20728 ft 391 kts 318°
2026-05-08 21:38 44.62228 8.22693 21268 ft 394 kts 318°
2026-05-08 21:39 44.64328 8.20181 21797 ft 398 kts 318°
2026-05-08 21:39 44.66440 8.17655 22332 ft 401 kts 318°
2026-05-08 21:39 44.68575 8.15100 22862 ft 404 kts 318°
2026-05-08 21:39 44.70719 8.12528 23394 ft 408 kts 318°
2026-05-08 21:40 44.72887 8.09924 23863 ft 411 kts 318°
2026-05-08 21:40 44.75065 8.07303 24310 ft 413 kts 318°
2026-05-08 21:41 44.75730 8.06502 24452 ft 413 kts 318°
2026-05-08 21:41 44.77913 8.03871 24918 ft 415 kts 318°
2026-05-08 21:41 44.80108 8.01222 25353 ft 417 kts 317°
2026-05-08 21:41 44.82315 7.98554 25756 ft 420 kts 317°
2026-05-08 21:42 44.84544 7.95855 26078 ft 425 kts 317°
2026-05-08 21:42 44.86791 7.93134 26484 ft 427 kts 317°
2026-05-08 21:42 44.89044 7.90404 26937 ft 428 kts 317°
2026-05-08 21:42 44.91318 7.87698 27339 ft 430 kts 321°
2026-05-08 21:43 44.93831 7.85381 27751 ft 434 kts 330°
2026-05-08 21:43 44.96552 7.83652 28186 ft 435 kts 335°
2026-05-08 21:43 44.99366 7.82039 28549 ft 438 kts 336°
2026-05-08 21:43 45.02116 7.80487 28889 ft 441 kts 336°
2026-05-08 21:44 45.04968 7.78871 29217 ft 443 kts 336°
2026-05-08 21:44 45.07831 7.77230 29583 ft 445 kts 336°
2026-05-08 21:44 45.10699 7.75570 29927 ft 446 kts 335°
2026-05-08 21:44 45.13577 7.73891 30272 ft 448 kts 335°
2026-05-08 21:45 45.16454 7.72203 30600 ft 448 kts 335°
2026-05-08 21:45 45.19330 7.70511 30927 ft 448 kts 335°
2026-05-08 21:45 45.22213 7.68811 31206 ft 449 kts 335°
2026-05-08 21:45 45.25100 7.67107 31499 ft 450 kts 335°
2026-05-08 21:46 45.27991 7.65400 31891 ft 449 kts 335°
2026-05-08 21:46 45.30863 7.63703 32274 ft 447 kts 335°
2026-05-08 21:46 45.33732 7.62006 32659 ft 445 kts 334°
2026-05-08 21:46 45.36580 7.60320 33148 ft 442 kts 334°
2026-05-08 21:47 45.39414 7.58640 33492 ft 441 kts 334°
2026-05-08 21:47 45.42251 7.56956 33747 ft 443 kts 334°
2026-05-08 21:47 45.44137 7.55834 33940 ft 443 kts 334°
2026-05-08 21:47 45.45603 7.54964 34130 ft 442 kts 334°
2026-05-08 21:48 45.48434 7.53281 34455 ft 440 kts 334°
2026-05-08 21:48 45.51251 7.51602 34721 ft 440 kts 334°
2026-05-08 21:48 45.54083 7.49913 34993 ft 440 kts 333°
2026-05-08 21:48 45.56896 7.48239 35350 ft 436 kts 333°
2026-05-08 21:49 45.59686 7.46570 35603 ft 436 kts 333°
2026-05-08 21:49 45.62489 7.44888 35801 ft 438 kts 333°
2026-05-08 21:49 45.65299 7.43203 36035 ft 438 kts 333°
2026-05-08 21:49 45.68101 7.41522 36297 ft 437 kts 333°
2026-05-08 21:50 45.70902 7.39839 36543 ft 437 kts 333°
2026-05-08 21:50 45.73716 7.38147 36775 ft 437 kts 333°
2026-05-08 21:50 45.76504 7.36472 37216 ft 432 kts 333°
2026-05-08 21:50 45.79255 7.34751 37463 ft 430 kts 329°
2026-05-08 21:51 45.81803 7.32564 37616 ft 427 kts 321°
2026-05-08 21:51 45.84227 7.30090 37694 ft 428 kts 320°
2026-05-08 21:51 45.89059 7.25067 37899 ft 428 kts 320°
2026-05-08 21:52 45.91447 7.22623 38116 ft 427 kts 321°
2026-05-08 21:52 45.93907 7.20123 38106 ft 429 kts 321°
2026-05-08 21:52 45.98728 7.15220 38090 ft 427 kts 321°
2026-05-08 21:53 46.03560 7.10266 38107 ft 427 kts 320°
2026-05-08 21:53 46.08408 7.05278 38122 ft 430 kts 320°
2026-05-08 21:54 46.13284 7.00250 38111 ft 432 kts 320°
2026-05-08 21:54 46.18169 6.95204 38105 ft 432 kts 321°
2026-05-08 21:55 46.23051 6.90150 38096 ft 431 kts 321°
2026-05-08 21:56 46.30344 6.82578 38103 ft 430 kts 321°
2026-05-08 21:56 46.35188 6.77532 38099 ft 427 kts 320°
2026-05-08 21:57 46.40004 6.72507 38115 ft 426 kts 321°
2026-05-08 21:57 46.44760 6.67418 38095 ft 423 kts 315°
2026-05-08 21:58 46.48865 6.61402 38090 ft 419 kts 310°
2026-05-08 21:58 46.52853 6.55247 38095 ft 418 kts 310°
2026-05-08 21:59 46.56857 6.49116 38091 ft 418 kts 310°
2026-05-08 21:59 46.60875 6.43002 38104 ft 418 kts 310°
2026-05-08 22:00 46.64874 6.36919 38094 ft 419 kts 310°
2026-05-08 22:00 46.68921 6.30749 38109 ft 419 kts 310°
2026-05-08 22:01 46.72948 6.24595 38112 ft 420 kts 310°
2026-05-08 22:01 46.76887 6.18560 38105 ft 421 kts 310°
2026-05-08 22:02 46.80923 6.12362 38123 ft 421 kts 311°
2026-05-08 22:02 46.84904 6.06235 38107 ft 422 kts 310°
2026-05-08 22:03 46.88912 6.00049 38096 ft 422 kts 310°
2026-05-08 22:03 46.92667 5.94244 38091 ft 421 kts 310°
2026-05-08 22:04 46.97102 5.88626 38079 ft 426 kts 325°
2026-05-08 22:04 47.02326 5.84556 38080 ft 427 kts 329°
2026-05-08 22:05 47.07613 5.80585 38076 ft 427 kts 329°
2026-05-08 22:05 47.12868 5.76575 38058 ft 425 kts 329°
2026-05-08 22:06 47.18107 5.72532 38061 ft 424 kts 329°
2026-05-08 22:06 47.23327 5.68485 38069 ft 424 kts 328°
2026-05-08 22:07 47.28536 5.64438 38070 ft 423 kts 329°
2026-05-08 22:07 47.33743 5.60385 38060 ft 423 kts 329°
2026-05-08 22:08 47.38940 5.56329 38067 ft 423 kts 329°
2026-05-08 22:08 47.44140 5.52262 38055 ft 423 kts 329°
2026-05-08 22:09 47.48882 5.48547 38062 ft 423 kts 328°
2026-05-08 22:09 47.53527 5.43386 38064 ft 416 kts 312°
2026-05-08 22:10 47.57090 5.36713 38058 ft 413 kts 304°
2026-05-08 22:10 47.60468 5.29814 38062 ft 414 kts 304°
2026-05-08 22:11 47.63833 5.22956 38072 ft 414 kts 304°
2026-05-08 22:11 47.67235 5.16054 38078 ft 415 kts 304°
2026-05-08 22:12 47.70646 5.09138 38080 ft 416 kts 304°
2026-05-08 22:12 47.74060 5.02201 38063 ft 417 kts 304°
2026-05-08 22:13 47.77477 4.95241 38071 ft 417 kts 304°
2026-05-08 22:13 47.80895 4.88260 38068 ft 418 kts 304°
2026-05-08 22:14 47.84314 4.81259 38067 ft 418 kts 304°
2026-05-08 22:14 47.87156 4.75426 38069 ft 419 kts 304°
2026-05-08 22:15 47.90572 4.68397 38065 ft 419 kts 304°
2026-05-08 22:15 47.93990 4.61348 38071 ft 419 kts 304°
2026-05-08 22:16 47.97400 4.54296 38059 ft 419 kts 304°
2026-05-08 22:16 48.00804 4.47237 38058 ft 418 kts 304°
2026-05-08 22:17 48.04197 4.40183 38051 ft 417 kts 304°
2026-05-08 22:17 48.07576 4.33141 38055 ft 416 kts 304°
2026-05-08 22:18 48.10941 4.26108 38055 ft 416 kts 304°
2026-05-08 22:18 48.14298 4.19072 38055 ft 415 kts 304°
2026-05-08 22:19 48.17648 4.12033 38065 ft 415 kts 304°
2026-05-08 22:19 48.20987 4.04997 38060 ft 414 kts 304°
2026-05-08 22:20 48.24327 3.97949 38062 ft 414 kts 304°
2026-05-08 22:20 48.28073 3.91360 38070 ft 416 kts 312°
2026-05-08 22:21 48.32120 3.85130 38061 ft 417 kts 313°
2026-05-08 22:21 48.36162 3.78874 38066 ft 417 kts 312°
2026-05-08 22:22 48.40154 3.72600 38075 ft 418 kts 312°
2026-05-08 22:22 48.44160 3.66253 38068 ft 418 kts 312°
2026-05-08 22:23 48.48169 3.59880 38073 ft 419 kts 312°
2026-05-08 22:23 48.52175 3.53498 38075 ft 419 kts 312°
2026-05-08 22:24 48.56175 3.47108 38073 ft 419 kts 312°
2026-05-08 22:24 48.60181 3.40695 38074 ft 419 kts 311°
2026-05-08 22:25 48.64179 3.34279 38079 ft 419 kts 312°
2026-05-08 22:25 48.68171 3.27854 38072 ft 419 kts 312°
2026-05-08 22:26 48.72162 3.21417 38075 ft 419 kts 312°
2026-05-08 22:26 48.76143 3.14977 38076 ft 419 kts 312°
2026-05-08 22:27 48.80120 3.08528 38073 ft 418 kts 312°
2026-05-08 22:27 48.84154 3.02175 38066 ft 419 kts 317°
2026-05-08 22:28 48.89023 2.97264 38087 ft 422 kts 328°
2026-05-08 22:28 48.94144 2.92885 38080 ft 423 kts 328°
2026-05-08 22:29 48.99265 2.88468 38077 ft 424 kts 328°
2026-05-08 22:29 49.04379 2.83992 38084 ft 424 kts 328°
2026-05-08 22:30 49.09494 2.79483 38078 ft 425 kts 328°
2026-05-08 22:30 49.14598 2.74970 38074 ft 424 kts 328°
2026-05-08 22:31 49.19661 2.70483 38077 ft 423 kts 328°
2026-05-08 22:31 49.24743 2.65969 38079 ft 422 kts 328°
2026-05-08 22:32 49.29812 2.61455 38089 ft 421 kts 328°
2026-05-08 22:32 49.34872 2.56939 38082 ft 420 kts 328°
2026-05-08 22:33 49.39919 2.52421 38086 ft 420 kts 328°
2026-05-08 22:33 49.44960 2.47898 38094 ft 420 kts 328°
2026-05-08 22:34 49.49967 2.43297 38107 ft 419 kts 322°
2026-05-08 22:34 49.54148 2.37169 38116 ft 415 kts 308°
2026-05-08 22:35 49.57771 2.30234 38099 ft 416 kts 308°
2026-05-08 22:35 49.61384 2.23280 38098 ft 416 kts 308°
2026-05-08 22:36 49.65020 2.16330 38110 ft 416 kts 308°
2026-05-08 22:36 49.68669 2.09370 38092 ft 417 kts 308°
2026-05-08 22:37 49.72324 2.02385 38101 ft 418 kts 308°
2026-05-08 22:37 49.75982 1.95379 38106 ft 419 kts 308°
2026-05-08 22:38 49.79642 1.88348 38103 ft 420 kts 308°
2026-05-08 22:38 49.83304 1.81293 38110 ft 420 kts 308°
2026-05-08 22:39 49.86961 1.74229 38109 ft 420 kts 307°
2026-05-08 22:39 49.90617 1.67145 38096 ft 421 kts 307°
2026-05-08 22:40 49.94267 1.60055 38108 ft 421 kts 307°
2026-05-08 22:40 49.97922 1.52954 38107 ft 421 kts 308°
2026-05-08 22:41 50.02135 1.46629 38103 ft 422 kts 317°
2026-05-08 22:41 50.06602 1.40702 37903 ft 425 kts 317°
2026-05-08 22:41 50.08854 1.37694 37471 ft 426 kts 317°
2026-05-08 22:42 50.10986 1.34823 36965 ft 423 kts 317°
2026-05-08 22:42 50.13192 1.31830 36615 ft 418 kts 317°
2026-05-08 22:42 50.15340 1.28900 36214 ft 414 kts 317°
2026-05-08 22:42 50.17252 1.26284 35890 ft 411 kts 317°
2026-05-08 22:43 50.19034 1.23842 35561 ft 408 kts 317°
2026-05-08 22:43 50.21110 1.20991 35197 ft 405 kts 317°
2026-05-08 22:43 50.23079 1.18285 34829 ft 402 kts 317°
2026-05-08 22:43 50.24740 1.15999 34533 ft 400 kts 317°
2026-05-08 22:44 50.26812 1.13146 34165 ft 397 kts 317°
2026-05-08 22:44 50.28856 1.10329 33746 ft 395 kts 317°
2026-05-08 22:44 50.30729 1.07744 33379 ft 392 kts 317°
2026-05-08 22:44 50.32320 1.05546 33082 ft 389 kts 317°
2026-05-08 22:45 50.34060 1.03140 32778 ft 386 kts 317°
2026-05-08 22:45 50.35961 1.00507 32429 ft 383 kts 317°
2026-05-08 22:45 50.37858 0.97877 32082 ft 381 kts 317°
2026-05-08 22:45 50.39759 0.95239 31739 ft 378 kts 317°
2026-05-08 22:46 50.41651 0.92611 31391 ft 375 kts 317°
2026-05-08 22:46 50.43562 0.89958 31063 ft 373 kts 317°
2026-05-08 22:46 50.45456 0.87335 30722 ft 371 kts 317°
2026-05-08 22:46 50.47406 0.84729 30386 ft 369 kts 318°
2026-05-08 22:47 50.49330 0.82189 30026 ft 367 kts 318°
2026-05-08 22:47 50.51228 0.79675 29642 ft 365 kts 318°
2026-05-08 22:47 50.53133 0.77140 29281 ft 361 kts 318°
2026-05-08 22:47 50.55011 0.74631 28915 ft 358 kts 318°
2026-05-08 22:48 50.56851 0.72181 28581 ft 355 kts 318°
2026-05-08 22:48 50.58577 0.69883 28277 ft 353 kts 318°
2026-05-08 22:48 50.60395 0.67462 27912 ft 350 kts 318°
2026-05-08 22:48 50.62220 0.65028 27568 ft 348 kts 318°
2026-05-08 22:49 50.64044 0.62592 27227 ft 346 kts 317°
2026-05-08 22:49 50.67694 0.57706 26552 ft 343 kts 318°
2026-05-08 22:49 50.69514 0.55264 26223 ft 344 kts 318°
2026-05-08 22:50 50.71351 0.52796 25899 ft 352 kts 318°
2026-05-08 22:50 50.73236 0.50259 25552 ft 361 kts 318°
2026-05-08 22:50 50.75150 0.47686 25174 ft 361 kts 318°
2026-05-08 22:50 50.77058 0.45120 24816 ft 359 kts 317°
2026-05-08 22:51 50.78957 0.42562 24465 ft 358 kts 317°
2026-05-08 22:51 50.80847 0.40010 24123 ft 356 kts 317°
2026-05-08 22:51 50.82729 0.37467 23756 ft 355 kts 317°
2026-05-08 22:51 50.84601 0.34933 23361 ft 354 kts 317°
2026-05-08 22:52 50.86468 0.32404 22988 ft 352 kts 317°
2026-05-08 22:52 50.88320 0.29891 22631 ft 350 kts 317°
2026-05-08 22:52 50.90136 0.27423 22289 ft 347 kts 317°
2026-05-08 22:52 50.91963 0.24938 21952 ft 345 kts 317°
2026-05-08 22:53 50.93775 0.22471 21614 ft 343 kts 317°
2026-05-08 22:53 50.95578 0.20011 21278 ft 341 kts 317°
2026-05-08 22:53 50.97367 0.17570 20948 ft 339 kts 317°
2026-05-08 22:53 50.99146 0.15142 20623 ft 337 kts 317°
2026-05-08 22:54 51.00918 0.12721 20288 ft 335 kts 317°
2026-05-08 22:54 51.02713 0.10383 20022 ft 333 kts 321°
2026-05-08 22:54 51.04598 0.08246 19798 ft 332 kts 323°
2026-05-08 22:54 51.06502 0.06186 19572 ft 333 kts 324°
2026-05-08 22:55 51.08429 0.04111 19351 ft 336 kts 324°
2026-05-08 22:55 51.10370 0.02008 19119 ft 339 kts 323°
2026-05-08 22:55 51.12307 -0.00109 18854 ft 337 kts 323°
2026-05-08 22:55 51.14231 -0.02223 18626 ft 335 kts 323°
2026-05-08 22:56 51.16134 -0.04325 18380 ft 330 kts 323°
2026-05-08 22:56 51.18008 -0.06402 18113 ft 325 kts 323°
2026-05-08 22:56 51.19847 -0.08446 17869 ft 320 kts 323°
2026-05-08 22:56 51.21659 -0.10462 17644 ft 316 kts 323°
2026-05-08 22:57 51.23464 -0.12475 17202 ft 322 kts 323°
2026-05-08 22:57 51.25369 -0.14606 16561 ft 345 kts 323°
2026-05-08 22:57 51.27356 -0.16828 15925 ft 350 kts 323°
2026-05-08 22:57 51.29346 -0.19052 15295 ft 348 kts 323°
2026-05-08 22:58 51.31319 -0.21228 14680 ft 346 kts 327°
2026-05-08 22:58 51.33582 -0.22493 14056 ft 348 kts 355°
2026-05-08 22:58 51.35973 -0.22080 13430 ft 347 kts 16°
2026-05-08 22:58 51.38227 -0.20684 12737 ft 349 kts 23°
2026-05-08 22:59 51.40464 -0.19110 11955 ft 351 kts 24°
2026-05-08 22:59 51.42657 -0.17541 11576 ft 338 kts 24°
2026-05-08 22:59 51.44776 -0.16032 11148 ft 328 kts 24°
2026-05-08 22:59 51.46831 -0.14581 10739 ft 318 kts 24°
2026-05-08 23:00 51.48849 -0.13167 10119 ft 317 kts 24°
2026-05-08 23:00 51.50868 -0.11759 9429 ft 316 kts 24°
2026-05-08 23:00 51.52879 -0.10360 8762 ft 315 kts 24°
2026-05-08 23:00 51.54491 -0.09240 8239 ft 314 kts 24°
2026-05-08 23:01 51.56536 -0.07819 7605 ft 311 kts 24°
2026-05-08 23:01 51.57833 -0.06918 7418 ft 302 kts 25°
2026-05-08 23:01 51.59731 -0.05599 7005 ft 294 kts 25°
2026-05-08 23:01 51.61588 -0.04308 6609 ft 287 kts 25°
2026-05-08 23:02 51.63403 -0.03044 6106 ft 284 kts 25°
2026-05-08 23:02 51.65195 -0.01795 5702 ft 277 kts 25°
2026-05-08 23:02 51.66954 -0.00568 5312 ft 272 kts 25°
2026-05-08 23:02 51.68674 0.00632 4938 ft 267 kts 25°
2026-05-08 23:03 51.70356 0.01806 4589 ft 260 kts 25°
2026-05-08 23:03 51.71956 0.02923 4508 ft 241 kts 25°
2026-05-08 23:03 51.73437 0.03958 4355 ft 223 kts 25°
2026-05-08 23:03 51.74808 0.04917 4225 ft 208 kts 25°
2026-05-08 23:04 51.76106 0.05827 3995 ft 201 kts 25°
2026-05-08 23:04 51.77383 0.06826 3422 ft 208 kts 37°
2026-05-08 23:04 51.78459 0.08290 3197 ft 195 kts 45°
2026-05-08 23:04 51.79406 0.09744 2978 ft 185 kts 46°
2026-05-08 23:05 51.80376 0.11216 2375 ft 193 kts 45°
2026-05-08 23:05 51.81300 0.12625 2186 ft 171 kts 47°
2026-05-08 23:05 51.82139 0.13895 1891 ft 159 kts 46°
2026-05-08 23:05 51.82919 0.15079 1663 ft 151 kts 48°
2026-05-08 23:06 51.83677 0.16223 1461 ft 147 kts 45°
2026-05-08 23:06 51.84433 0.17353 1316 ft 151 kts 47°
2026-05-08 23:06 51.85203 0.18515 1080 ft 151 kts 45°
2026-05-08 23:06 51.85962 0.19662 845 ft 148 kts 45°
2026-05-08 23:07 51.86708 0.20788 649 ft 145 kts 45°
2026-05-08 23:07 51.87447 0.21899 432 ft 145 kts 45°
2026-05-08 23:07 51.88159 0.22970 330 ft 121 kts 43°
2026-05-08 23:07 51.88614 0.23650 337 ft 59 kts 43°
2026-05-08 23:08 51.88807 0.23963 339 ft 32 kts 52°
2026-05-08 23:08 51.88876 0.24209 351 ft 21 kts 70°
2026-05-08 23:08 51.88908 0.24368 354 ft 7 kts 74°
2026-05-08 23:08 51.88921 0.24445 357 ft 7 kts 76°
2026-05-08 23:09 51.88910 0.24517 359 ft 7 kts 126°
2026-05-08 23:09 51.88920 0.24594 358 ft 12 kts 40°
2026-05-08 23:09 51.88989 0.24698 351 ft 16 kts 43°
2026-05-08 23:09 51.89079 0.24832 355 ft 20 kts 41°
2026-05-08 23:10 51.89173 0.24968 351 ft 19 kts 43°
2026-05-08 23:10 51.89247 0.25127 356 ft 17 kts 57°
2026-05-08 23:10 51.89333 0.25283 356 ft 20 kts 42°
2026-05-08 23:10 51.89415 0.25411 351 ft 8 kts 52°
2026-05-08 23:11 51.89405 0.25507 351 ft 11 kts 127°
2026-05-08 23:11 51.89360 0.25627 354 ft 13 kts 128°
2026-05-08 23:11 51.89321 0.25694 351 ft 7 kts 134°
2026-05-08 23:11 51.89313 0.25707 354 ft 1 kts 133°
2026-05-08 23:12 51.89308 0.25719 354 ft 1 kts 118°
2026-05-08 23:12 51.89311 0.25734 357 ft 1 kts 72°
2026-05-08 23:12 51.89318 0.25747 354 ft 2 kts 44°
2026-05-08 23:12 51.89329 0.25764 358 ft 4 kts 43°
2026-05-08 23:13 51.89342 0.25784 351 ft 1 kts 43°
2026-05-08 23:13 51.89345 0.25789 351 ft 0 kts 43°